[[{"header":{"parameterUnit":"m.s-1","parameterCategory":1,"la1":30.2992,"la2":30.254,"lo1":-89.0895,"lo2":-89.0443,"dy":0.0025,"dx":0.0025,"nx":19,"ny":19,"refTime":"2026-04-30T09:00:00:Z","depth":0,"parameterNumber":2,"parameterNumberName":"U-component_of_WINDS"},"data":[0,0,0,-4.4801,-4.48,-4.4733,-4.4733,-4.4695,-4.4695,0,0,0,0,0,0,0,0,0,0,0,-4.485,-4.485,-4.4801,-4.48,-4.4733,-4.4733,-4.4695,-4.4695,0,0,0,0,0,0,0,0,0,0,0,-4.4849,-4.485,-4.4851,-4.48,-4.4733,-4.4733,-4.4695,-4.4728,0,0,0,0,0,0,0,0,0,0,-4.4785,-4.4859,-4.485,-4.4851,-4.48,-4.4733,-4.4732,-4.4729,-4.4726,-4.4745,0,-4.4771,0,-4.4733,-4.4695,-4.4695,0,0,0,-4.4778,-4.4861,-4.4817,-4.4851,-4.4799,-4.4734,-4.4757,-4.4727,-4.4724,-4.4742,-4.477,-4.4767,-4.4732,-4.4695,-4.4695,-4.4879,-4.4881,0,0,-4.4782,-4.4854,-4.4819,-4.4816,-4.483,-4.4759,-4.4755,-4.4724,-4.4759,-4.4769,-4.4765,-4.4731,-4.4695,-4.4695,-4.4877,-4.4879,0,0,0,-4.4807,-4.4857,-4.4812,-4.4819,-4.4804,-4.4758,-4.4753,-4.476,-4.474,-4.4764,-4.4731,-4.4695,-4.4696,-4.4875,-4.4878,-4.5038,0,0,0,-4.4808,-4.4872,-4.4815,-4.4858,-4.4805,-4.4781,-4.4792,-4.4742,-4.4736,-4.4731,-4.4695,-4.4696,-4.4873,-4.4876,-4.5029,-4.5101,0,0,0,-4.4844,-4.4875,-4.4876,-4.4862,-4.4836,-4.478,-4.4757,-4.4739,-4.4717,-4.4695,-4.4696,-4.4871,-4.4876,-4.5021,-4.5088,-4.5167,0,0,0,-4.4903,-4.5021,-4.488,-4.4998,-4.4837,-4.4881,-4.4756,-4.4785,-4.4786,-4.4695,-4.4873,-4.4878,-4.5018,-4.5079,-4.5159,-4.5245,-4.5289,0,0,-4.5092,-4.5047,-4.5111,-4.4982,-4.5069,-4.4885,-4.4995,-4.4928,-4.4862,-4.4877,-4.488,-4.5032,-4.5087,-4.5166,-4.5513,-4.5548,0,0,0,-4.5195,-4.5241,-4.5249,-4.5252,-4.5205,-4.5168,-4.5077,-4.5052,-4.5061,-4.4884,-4.5082,-4.5112,-4.5156,-4.5193,-4.5223,-4.5254,-4.4899,-4.4898,-4.4898,-4.5563,-4.547,-4.5569,-4.5468,-4.5474,-4.5378,-4.5373,-4.5322,-4.5229,-4.5277,-4.528,-4.5502,-4.5549,-4.557,-4.5604,-4.532,-4.5321,-4.5322,-4.5322,-4.5828,-4.5878,-4.5749,-4.5798,-4.5699,-4.5739,-4.5652,-4.5584,-4.5605,-4.5493,-4.5526,-4.5408,-4.5612,-4.5636,-4.5333,-4.5331,-4.533,-4.5329,-4.5328,-4.6056,-4.6063,-4.6031,-4.6025,-4.6032,-4.5926,-4.5952,-4.5862,-4.5777,-4.5811,-4.5801,-4.5798,-4.5781,-4.5813,-4.5814,-4.5815,-4.5815,-4.5816,-4.5816,-4.6304,-4.6262,-4.6295,-4.6254,-4.6243,-4.6218,-4.6123,-4.6109,-4.6071,-4.6003,-4.6002,-4.5902,-4.565,-4.5587,-4.5828,-4.5826,-4.5824,-4.5823,-4.5823,-4.66,-4.6519,-4.657,-4.656,-4.6502,-4.6513,-4.6398,-4.6378,-4.6354,-4.637,-4.6262,-4.6092,-4.6039,-4.6015,-4.5961,-4.6284,-4.6284,-4.6284,-4.6284,-4.679,-4.6755,-4.6785,-4.6774,-4.6753,-4.6654,-4.6713,-4.664,-4.6552,-4.653,-4.6471,-4.6394,-4.6374,-4.6332,-4.6301,-4.6249,-4.6638,-4.6639,-4.6639,-4.6965,-4.6924,-4.6992,-4.6904,-4.6853,-4.681,-4.6861,-4.6852,-4.6735,-4.6651,-4.6511,-4.6496,-4.637,-4.6335,-4.6246,-4.6199,-4.6103,0,0]},{"header":{"parameterUnit":"m.s-1","parameterCategory":1,"la1":30.2992,"la2":30.254,"lo1":-89.0895,"lo2":-89.0443,"dy":0.0025,"dx":0.0025,"nx":19,"ny":19,"refTime":"2026-04-30T09:00:00:Z","depth":0,"parameterNumber":3,"parameterNumberName":"V-component_of_WINDS"},"data":[0,0,0,1.2618,1.262,1.2674,1.2674,1.277,1.2771,0,0,0,0,0,0,0,0,0,0,0,1.2618,1.2619,1.2618,1.262,1.2674,1.2674,1.277,1.2771,0,0,0,0,0,0,0,0,0,0,0,1.2617,1.2619,1.262,1.262,1.2674,1.2674,1.2769,1.2719,0,0,0,0,0,0,0,0,0,0,1.2663,1.2677,1.2619,1.262,1.2621,1.2673,1.2674,1.2717,1.2723,1.2757,0,1.2791,0,1.2783,1.2779,1.2779,0,0,0,1.2609,1.2672,1.2673,1.2621,1.2621,1.2673,1.2646,1.272,1.2726,1.2765,1.2792,1.2795,1.2784,1.278,1.278,1.3017,1.3018,0,0,1.2606,1.2636,1.2668,1.2678,1.267,1.2645,1.2648,1.2723,1.2755,1.2792,1.2797,1.2786,1.2781,1.2782,1.3015,1.3017,0,0,0,1.2605,1.2635,1.2632,1.2675,1.2682,1.2646,1.265,1.2751,1.2748,1.2797,1.2787,1.2781,1.2783,1.3013,1.3016,1.3127,0,0,0,1.2603,1.2634,1.2632,1.2651,1.2681,1.2717,1.2677,1.2743,1.275,1.2786,1.2781,1.2784,1.3011,1.3015,1.312,1.3175,0,0,0,1.2609,1.2634,1.2647,1.2652,1.2676,1.2715,1.2716,1.2744,1.2745,1.278,1.2784,1.301,1.3014,1.3114,1.3165,1.3248,0,0,0,1.2625,1.2745,1.265,1.2779,1.2676,1.2783,1.2715,1.2793,1.2836,1.2782,1.3012,1.3015,1.3112,1.3158,1.3242,1.3325,1.3362,0,0,1.2793,1.2766,1.284,1.2757,1.2888,1.2772,1.2921,1.2931,1.2907,1.2982,1.2987,1.3123,1.3164,1.3247,1.3555,1.3585,0,0,0,1.2904,1.2958,1.2986,1.3028,1.3039,1.3054,1.3038,1.3043,1.3105,1.2951,1.3173,1.3197,1.3244,1.3283,1.3308,1.3348,1.3034,1.3034,1.3033,1.3186,1.3148,1.3269,1.3239,1.3281,1.3265,1.3296,1.33,1.3248,1.3302,1.3325,1.3516,1.3562,1.3581,1.3623,1.3364,1.3364,1.3365,1.3365,1.343,1.3501,1.3432,1.3524,1.3485,1.3563,1.3553,1.3515,1.3582,1.3495,1.3535,1.3446,1.3615,1.365,1.3373,1.3371,1.337,1.337,1.3369,1.3612,1.364,1.3643,1.3702,1.3752,1.3717,1.3786,1.3747,1.3711,1.375,1.3771,1.3769,1.3765,1.3762,1.3763,1.3764,1.3764,1.3765,1.3765,1.38,1.38,1.3862,1.3886,1.3909,1.3935,1.3922,1.3944,1.3959,1.3925,1.3925,1.3872,1.3637,1.3581,1.3776,1.3774,1.3772,1.3771,1.3771,1.4065,1.3999,1.4096,1.412,1.4145,1.4199,1.4148,1.4198,1.4211,1.4247,1.4184,1.4017,1.3986,1.3966,1.3919,1.419,1.419,1.419,1.419,1.422,1.4201,1.4292,1.4333,1.4369,1.4333,1.4447,1.4438,1.4419,1.4426,1.438,1.4314,1.4295,1.4276,1.4249,1.4205,1.4542,1.4542,1.4543,1.4382,1.4365,1.4468,1.4448,1.4466,1.4483,1.4589,1.464,1.4604,1.4556,1.443,1.4415,1.4308,1.4274,1.4225,1.4184,1.4101,0,0]}]]